Location: Altenhof
(50.2418°N, 10.8789°E)
Time: 06:03:37
(UTC+00:00)

AQUARIUS - Pass Details

Date: 18 February 2020
Orbit: 650 x 653 km, 98.0° (Epoch: 09 April)

Event Time Altitude Azimuth Distance (km) Brightness Sun altitude
Rises 05:43:31 0° 15° (NNE) 2,990 7.6 -7.0°
Reaches altitude 10° 05:45:45 10° 17° (NNE) 2,074 6.8 -6.6°
Maximum altitude 05:50:17 76° 104° (ESE) 678 4.5 -5.9°
Drops below altitude 10° 05:54:47 10° 190° (S) 2,056 6.8 -5.2°
Sets 05:56:59 0° 192° (SSW) 2,962 7.6 -4.9°
